Regional Weather Roundup
Issued by NWS

Home | Current Version | Previous Version | Text Only | Print | Product List | Glossary On
Versions: 1 2 3 4 5 6 7 8 9 10 11 12 13 14 15 16 17 18 19 20 21 22 23 24 25 26 27 28 29 30 31 32 33 34 35 36 37 38 39 40 41 42 43 44 45 46 47 48 49 50
000
ASUS43 KLOT 290409
RWRIL

ILLINOIS REGIONAL WEATHER ROUNDUP
NATIONAL WEATHER SERVICE CHICAGO/ROMEOVILLE IL
1100 PM CDT WED JUN 28 2017

NOTE: "FAIR" INDICATES FEW OR NO CLOUDS BELOW 12,000 FEET WITH NO
SIGNIFICANT WEATHER AND/OR OBSTRUCTIONS TO VISIBILITY.

* THESE STATIONS ARE NOT UNDER NWS QUALITY CONTROL. THEY ALSO MAY NOT
  REPORT WEATHER SUCH AS PRECIPITATION OR FOG.

ILZ001-002-007-009-015-016-024-290500-
NORTHWEST ILLINOIS

CITY           SKY/WX    TMP DP  RH WIND       PRES   REMARKS
MOLINE         CLOUDY    80  65  59 SW10      29.72R HX  82
STERLING*      CLOUDY    76  65  68 VRB6      29.75R
SAVANNA*       CLOUDY    72  66  83 SE14      29.68F
$$

ILZ003-004-008-010-011-017-018-290500-
NORTH CENTRAL ILLINOIS

CITY           SKY/WX    TMP DP  RH WIND       PRES   REMARKS
ROCKFORD       CLOUDY    66  64  93 SE12      29.77F
FREEPORT*      CLOUDY    64  63  97 SE13      29.73F
ROCHELLE*      CLOUDY    67  65  94 E12       29.80R
DE KALB*       TSTM      65  64  94 N29       29.81F
PERU*          MOCLDY    75  62  62 S20       29.77S
$$

ILZ005-006-012>014-019>023-290500-
NORTHEAST ILLINOIS

CITY           SKY/WX    TMP DP  RH WIND       PRES   REMARKS
CHICAGO-OHARE  LGT RAIN  68  65  90 NE8       29.85R
CHICAGO-MIDWAY LGT RAIN  75  64  68 S9        29.80S
AURORA         MOCLDY    73  65  75 CALM      29.79F
LANSING*       LGT RAIN  72  62  71 S20       29.83F
JOLIET*        LGT RAIN  75  66  75 S9G16     29.81F
WAUKEGAN       LGT RAIN  65  65 100 S7        29.84F FOG
DUPAGE AIRPORT LGT RAIN  69  65  86 N5        29.81S
WHEELING       TSTM      65  65 100 NW7       29.87R FOG
MORRIS*        CLOUDY    74  64  70 S12G20    29.79S
ROMEOVILLE*    CLOUDY    72  63  74 S17G24    29.80F
$$

LMZ740>746-290500-
SOUTHERN LAKE MICHIGAN

STATION/POSITION SKY/WX   TEMP    WIND        PRES    VSBY  WAVE
                          AIR SEA DIR/SP/G                  HT/PER
                          (F)     (DEG/KT/KT) (MB)    (MI)  (FT/S)
SOUTHERN BUOY              63 60  340/ 21/ 27 1010.4          3/ 6
WILMETTE HARBOR            64 62  330/ 12/ 14   N/A           2/ 3
HARRISON CRIB              76     210/ 16/ 18   N/A
BURNHAM HARBOR             74                   N/A
CALUMET HARBOR             74     180/ 14/ 19 1009.4R
BURNS HARBOR               76     200/ 19/ 27 1011.2R
MICHIGAN CITY              76     180/ 18/ 23   N/A
MICHIGAN CITY 6N           73 65  200/ 17/ 25   N/A           3/ 4
ST. JOSEPH                 73 67  220/ 14/ 21 1011.6          3/ 4
$$

ILZ025>027-034>036-040-047-049-050-058-095>099-290500-
WEST-CENTRAL ILLINOIS

CITY           SKY/WX    TMP DP  RH WIND       PRES   REMARKS
QUINCY         CLOUDY    77  65  66 SW8       29.88R
GALESBURG*     LGT RAIN  78  64  61 S24G35    29.73S
MACOMB*        CLOUDY    74  65  74 SW17G24   29.85R
JACKSONVILLE*  MOCLDY    78  60  53 S12G17    29.87R HX  80
PITTSFIELD*    CLOUDY    78  64  62 S7        29.88R HX  80
$$

ILZ028>032-037-038-041>044-048-051>054-059>061-290500-
CENTRAL ILLINOIS

CITY           SKY/WX    TMP DP  RH WIND       PRES   REMARKS
PONTIAC        CLOUDY    77  64  63 S18G26    29.82F
BLOOMINGTON    MOCLDY    76  63  64 S22G30    29.86R
DECATUR        CLOUDY    76  62  62 S17       29.89S
PEORIA         CLOUDY    78  63  59 S22       29.81R HX  80
LACON*         CLOUDY    78  63  58 S16G24    29.78R HX  80
LINCOLN*       CLOUDY    78  64  63 S10G21    29.87R HX  80
SPRINGFIELD    CLOUDY    80  65  59 S13G23    29.87R HX  82
TAYLORVILLE    CLOUDY    74  64  69 S13       29.90S
$$

ILZ033-039-045-046-055>057-062-063-290500-
EAST-CENTRAL ILLINOIS

CITY           SKY/WX    TMP DP  RH WIND       PRES   REMARKS
CHAMPAIGN      CLOUDY    74  62  66 S15       29.91R
RANTOUL*       MOCLDY    77  65  66 S15G23    29.89F
MATTOON        CLOUDY    75  66  73 S9        29.93R
PARIS*         MOCLDY    73  63  72 S10       29.95R
$$

ILZ079-100>102-290500-
SOUTHWEST ILLINOIS

CITY           SKY/WX    TMP DP  RH WIND       PRES   REMARKS
ALTON          CLOUDY    76  67  72 S10       29.91R
BELLEVILLE     MOCLDY    75  66  71 S9        29.93R
CAHOKIA*       CLOUDY    78  64  61 S7        29.91R HX  80
SPARTA*        CLOUDY    75  64  68 S6        29.94F
$$

ILZ064>066-069>071-074>076-080>082-084>086-088>090-092>094-290500-
SOUTH-CENTRAL ILLINOIS

CITY           SKY/WX    TMP DP  RH WIND       PRES   REMARKS
CARBONDALE     PTCLDY    72  66  81 S6        29.94F
CAIRO*         CLEAR     74  67  78 SE5       29.97S
EFFINGHAM*     CLOUDY    75  65  71 SE6       29.96R
MARION         CLOUDY    75  66  73 S6        29.97S
MT. VERNON     PTCLDY    74  65  73 S7        29.95F
CENTRALIA*     MOCLDY    74  66  75 S7        29.94R
SALEM*         CLOUDY    76  64  65 S5        29.94R
METROPOLIS*    CLEAR     74  66  75 SE3       29.99S
$$

ILZ067-068-072-073-078-083-087-091-290500-
SOUTHEAST ILLINOIS

CITY           SKY/WX    TMP DP  RH WIND       PRES   REMARKS
LAWRENCEVILLE  PTCLDY    68  64  87 S8        29.97S
FLORA*         CLOUDY    74  67  76 S8        29.95S
FAIRFIELD*     PTCLDY    74  66  75 S5        29.94F
HARRISBURG*    PTCLDY    71  67  89 S5        29.97F
ROBINSON*      CLOUDY    67  61  80 S6        29.96F
CARMI*         CLOUDY    71  66  83 S7        29.97S
$$

ABBREVIATIONS USED IN REMARKS
   TC - TEMPERATURE IN CELSIUS
  WCI - WIND CHILL INDEX
   HX - HEAT INDEX
  VSB - VISIBILITY
$$





USA.gov is the U.S. government's official web portal to all federal, state and local government web resources and services.